BEIDOU-2 IGSO-1

Last updated on Mon Jul 14 2025 00:02:46 GMT+0000 (Coordinated Universal Time)

1 36828U 10036A 25193.90166296 -.00000098 00000+0 00000+0 0 9992 2 36828 54.2806 166.0307 0049442 217.9615 339.2721 1.00269437 54694
UTC large
Height (km)
Speed (km/s)
/
Latitude / Longitude
Inclination (degrees)
Orbital Period (minutes)
Azimuth
Elevation
Range (km)
Doppler Factor

Next 0 passes for location: London (51.5072 / 0.1276)

Sorry there are no passes over London.